Location: Oberkirch
(48.5323°N, 8.0787°E)
Time: 21:53:18
(UTC+00:00)

Tiros 1 - Pass Details

Date: 20 February 2026
Orbit: 618 x 649 km, 48.4° (Epoch: 7 March)

Event Time Altitude Azimuth Distance (km) Brightness Sun altitude
Rises 10:46:25 0° 277° (W) 2,904 10.3 29.4°
Reaches altitude 10° 10:48:45 10° 277° (W) 1,993 9.5 29.5°
Maximum altitude 10:53:19 83° 191° (S) 630 7.8 29.7°
Drops below altitude 10° 10:57:53 10° 103° (ESE) 1,980 10.1 29.9°
Sets 11:00:11 0° 102° (ESE) 2,883 10.8 29.9°
